Grand Etang, Nova Scotia

8:15 AM ADT on May 20, 2018 (GMT -0300)
Grand Etang

Weather History for CWZQ - December, 2012

Change the Weather History Date:

Tuesday, December 11, 2012

  Actual Average Record
Temperature  
Mean Temperature 46 °F -  
Max Temperature 60 °F - - ()
Min Temperature 32 °F - - ()
Degree Days  
Heating Degree Days 19    
Moisture  
Dew Point 41 °F    
Average Humidity 87    
Maximum Humidity 96    
Minimum Humidity 76    
Precipitation  
Precipitation 0.00 in - - ()
Sea Level Pressure  
Sea Level Pressure 29.60 in    
Wind  
Wind Speed 18 mph ()    
Max Wind Speed 25 mph    
Max Gust Speed 40 mph    
T = Trace of Precipitation, MM = Missing Value Source: Averaged Metar Reports

Daily Weather History Graph

Daily Weather History Graph

Search for Another Location

Airport or City:

Astronomy

Dec. 11, 2012 Rise Set
Actual Time 7:38 AM AST 4:16 PM AST
Civil Twilight 7:03 AM AST 4:51 PM AST
Nautical Twilight 6:25 AM AST 5:30 PM AST
Astronomical Twilight 5:48 AM AST 6:06 PM AST
Moon 5:24 AM AST (12/11) 2:54 PM AST (12/11)
Length of Visible Light 9h 48m
Length of Day
8h 38m
Waning Crescent, 4% of the Moon is Illuminated
Dec 11
Waning Crescent
Dec 13
New
Dec 20
First Quarter
Dec 28
Full
Jan 4
Last Quarter

Hourly Weather History & Observations

Time (AST) Temp. Windchill Dew Point Humidity Pressure Visibility Wind Dir Wind Speed Gust Speed Precip Events Conditions
12:00 AM 54.5 °F - 49.6 °F 84% 29.54 in - SSE 21.9 mph 29.9 mph N/A   Unknown
12:20 AM 54.7 °F - 50.5 °F 86% - - South 19.6 mph 31.1 mph N/A   Unknown
12:40 AM 56.5 °F - 51.8 °F 84% - - South 20.7 mph 32.2 mph N/A   Unknown
1:00 AM 55.9 °F - 52.0 °F 87% 29.49 in - South 21.9 mph - N/A   Unknown
1:20 AM 57.0 °F - 53.2 °F 87% - - SSE 19.6 mph 27.6 mph N/A   Unknown
2:00 AM 57.7 °F - 54.0 °F 87% 29.45 in - South 21.9 mph 33.4 mph N/A   Unknown
2:20 AM 57.7 °F - 54.1 °F 88% - - South 23.0 mph 36.8 mph N/A   Unknown
2:40 AM 57.9 °F - 54.5 °F 88% - - South 23.0 mph 35.7 mph N/A   Unknown
3:00 AM 58.6 °F - 55.6 °F 90% 29.40 in - South 23.0 mph 39.1 mph N/A   Unknown
3:20 AM 59.2 °F - 55.6 °F 88% - - South 23.0 mph 38.0 mph N/A   Unknown
3:40 AM 59.9 °F - 56.1 °F 87% - - South 24.2 mph 40.3 mph N/A   Unknown
4:00 AM 59.7 °F - 56.1 °F 88% 29.39 in - South 25.3 mph - N/A   Unknown
4:20 AM 59.7 °F - 56.8 °F 90% - - South 23.0 mph 32.2 mph N/A   Unknown
4:40 AM 60.1 °F - 57.0 °F 90% - - South 20.7 mph 31.1 mph N/A   Unknown
5:00 AM 60.1 °F - 56.8 °F 89% 29.35 in - South 23.0 mph - N/A   Unknown
5:20 AM 59.7 °F - 57.0 °F 91% - - South 19.6 mph 27.6 mph N/A   Unknown
5:40 AM 57.9 °F - 55.9 °F 93% - - SSW 13.8 mph 20.7 mph N/A   Unknown
6:00 AM 49.5 °F - 47.8 °F 94% 29.34 in - SW 19.6 mph - N/A   Unknown
6:20 AM 48.9 °F - 47.8 °F 96% - - WSW 20.7 mph - N/A   Unknown
6:40 AM 46.9 °F - 45.7 °F 95% - - WSW 15.0 mph - N/A   Unknown
7:00 AM 48.0 °F - 46.9 °F 96% 29.42 in - South 20.7 mph - N/A   Unknown
7:20 AM 47.7 °F - 46.6 °F 96% - - South 6.9 mph - N/A   Unknown
7:40 AM 47.5 °F - 46.2 °F 95% - - SW 9.2 mph - N/A   Unknown
8:00 AM 46.6 °F - 45.3 °F 95% 29.47 in - SSW 10.4 mph - N/A   Unknown
8:20 AM 46.4 °F 41.9 °F 45.1 °F 95% - - South 9.2 mph - N/A   Unknown
8:40 AM 45.3 °F 39.0 °F 43.7 °F 94% - - SW 13.8 mph - N/A   Unknown
9:00 AM 44.2 °F 37.3 °F 42.8 °F 95% 29.51 in - WSW 15.0 mph - N/A   Unknown
9:20 AM 42.8 °F 34.5 °F 41.2 °F 94% - - WSW 18.4 mph - N/A   Unknown
9:40 AM 41.9 °F 33.1 °F 40.3 °F 94% - - West 19.6 mph - N/A   Unknown
10:00 AM 41.5 °F 31.6 °F 39.7 °F 93% 29.59 in - WSW 24.2 mph - N/A   Unknown
10:20 AM 41.7 °F 37.3 °F 39.7 °F 93% - - SW 6.9 mph - N/A   Unknown
10:40 AM 42.1 °F 35.2 °F 39.7 °F 91% - - WSW 12.7 mph - N/A   Unknown
11:00 AM 41.9 °F 34.3 °F 39.0 °F 90% 29.59 in - WSW 15.0 mph - N/A   Unknown
11:20 AM 41.5 °F 33.2 °F 38.5 °F 89% - - West 17.3 mph - N/A   Unknown
11:40 AM 41.4 °F 33.0 °F 38.3 °F 89% - - West 17.3 mph - N/A   Unknown
12:00 PM 41.4 °F 33.0 °F 38.3 °F 89% 29.61 in - WSW 17.3 mph - N/A   Unknown
12:20 PM 41.2 °F 33.7 °F 38.1 °F 89% - - WSW 13.8 mph - N/A   Unknown
12:40 PM 41.2 °F 35.0 °F 38.1 °F 89% - - SW 10.4 mph - N/A   Unknown
1:00 PM 41.2 °F 33.4 °F 38.1 °F 89% 29.62 in - WSW 15.0 mph - N/A   Unknown
1:20 PM 41.2 °F 32.7 °F 38.3 °F 89% - - West 17.3 mph - N/A   Unknown
1:40 PM 40.8 °F 31.7 °F 37.8 °F 89% - - West 19.6 mph - N/A   Unknown
2:00 PM 40.8 °F 31.7 °F 37.6 °F 88% 29.63 in - West 19.6 mph - N/A   Unknown
2:20 PM 40.8 °F 32.0 °F 37.6 °F 88% - - West 18.4 mph - N/A   Unknown
2:40 PM 40.5 °F 30.9 °F 37.0 °F 88% - - West 20.7 mph - N/A   Unknown
3:00 PM 40.5 °F 30.4 °F 36.7 °F 86% 29.67 in - West 23.0 mph - N/A   Unknown
3:20 PM 40.6 °F 31.7 °F 36.9 °F 86% - - West 18.4 mph - N/A   Unknown
3:40 PM 40.5 °F 30.9 °F 36.9 °F 87% - - West 20.7 mph - N/A   Unknown
4:00 PM 39.7 °F 30.0 °F 35.6 °F 85% 29.70 in - West 20.7 mph - N/A   Unknown
4:20 PM 39.4 °F 31.1 °F 35.1 °F 84% - - West 15.0 mph - N/A   Unknown
4:40 PM 38.5 °F 28.6 °F 35.2 °F 88% - - WNW 19.6 mph - N/A   Unknown
5:00 PM 38.1 °F 27.9 °F 34.9 °F 88% 29.72 in - WNW 20.7 mph - N/A   Unknown
5:20 PM 37.6 °F 26.9 °F 34.2 °F 87% - - WNW 21.9 mph - N/A   Unknown
5:40 PM 36.9 °F 26.2 °F 32.9 °F 86% - - WNW 20.7 mph - N/A   Unknown
6:00 PM 36.7 °F 25.7 °F 31.8 °F 83% 29.78 in - WNW 21.9 mph - N/A   Unknown
6:20 PM 36.7 °F 26.6 °F 31.8 °F 83% - - WNW 18.4 mph - N/A   Unknown
6:40 PM 36.9 °F 27.1 °F 32.0 °F 83% - - WNW 17.3 mph - N/A   Unknown
7:00 PM 36.9 °F 25.9 °F 31.6 °F 81% 29.79 in - West 21.9 mph - N/A   Unknown
7:20 PM 36.9 °F 26.5 °F 31.8 °F 82% - - West 19.6 mph - N/A   Unknown
7:40 PM 36.3 °F 25.5 °F 30.7 °F 80% - - WNW 20.7 mph - N/A   Unknown
8:00 PM 36.5 °F 25.4 °F 30.9 °F 80% 29.83 in - WNW 21.9 mph - N/A   Unknown
8:20 PM 36.5 °F 25.2 °F 30.9 °F 80% - - West 23.0 mph - N/A   Unknown
8:40 PM 36.5 °F 25.2 °F 30.0 °F 77% - - West 23.0 mph 29.9 mph N/A   Unknown
9:00 PM 35.8 °F 23.9 °F 29.1 °F 77% 29.85 in - West 24.2 mph - N/A   Unknown
9:20 PM 35.6 °F 23.4 °F 28.6 °F 76% - - West 25.3 mph 31.1 mph N/A   Unknown
9:40 PM 35.2 °F 24.1 °F 28.4 °F 76% - - West 20.7 mph - N/A   Unknown
10:00 PM 34.9 °F 22.5 °F 28.4 °F 77% 29.86 in - WNW 25.3 mph - N/A   Unknown
10:20 PM 34.5 °F 23.1 °F 27.7 °F 76% - - West 20.7 mph 26.5 mph N/A   Unknown
10:40 PM 34.0 °F 22.1 °F 28.0 °F 79% - - WNW 21.9 mph - N/A   Unknown
11:00 PM 33.3 °F 20.3 °F 26.6 °F 77% 29.89 in - West 25.3 mph 32.2 mph N/A   Unknown
11:20 PM 32.9 °F 20.4 °F 26.6 °F 78% - - West 23.0 mph 29.9 mph N/A   Unknown
11:40 PM 32.9 °F 21.6 °F 27.5 °F 81% - - West 18.4 mph 27.6 mph N/A   Unknown